Oceanside, California, United States (92049)
Lat: 33.20N, Lon: 117.38W
Wx Zone: CAZ043
Local Info
Past Weather Observations for Today

NOTE: This archive is for the closest National Weather Service station to Oceanside. Information may differ from the station used for current weather conditions.

Click here for Long-term Archive

Time Weather Temperature Dewpoint Humidity Pressure Winds Precip Visibility
15:52
Clear
75°F / 24°C 63°F / 17°C 65% 29.92 in
(1013 mb)
SSW 9.2 mph
(SSW 15 kph)
- 10SM
14:52
Clear
75°F / 24°C 63°F / 17°C 65% 29.92 in
(1013 mb)
W 8.1 mph
(W 13 kph)
- 10SM
13:52
Clear
75°F / 24°C 63°F / 17°C 65% 29.95 in
(1014 mb)
SSW 10.4 mph
(SSW 17 kph)
- 10SM
12:52
Clear
79°F / 26°C 63°F / 17°C 58% 29.95 in
(1014 mb)
W 6.9 mph
(W 11 kph)
- 10SM
11:52
Clear
79°F / 26°C 63°F / 17°C 58% 29.98 in
(1015 mb)
SSW 11.5 mph
(SSW 19 kph)
- 10SM
10:52
Clear
75°F / 24°C 61°F / 16°C 61% 29.98 in
(1015 mb)
SSW 11.5 mph
(SSW 19 kph)
- 10SM
09:52
Clear
75°F / 24°C 63°F / 17°C 65% 29.98 in
(1015 mb)
SSW 5.8 mph
(SSW 9 kph)
- 9SM
08:52
Partly Cloudy
73°F / 23°C 61°F / 16°C 65% 29.98 in
(1015 mb)
Calm - 9SM
07:52
Partly Cloudy
70°F / 21°C 61°F / 16°C 73% 29.98 in
(1015 mb)
Variable 3.5 mph
(Variable 6 kph)
- 8SM
07:50
Partly Cloudy
70°F / 21°C 61°F / 16°C 73% 29.98 in
(1015 mb)
Calm - 8SM
07:04
Overcast
64°F / 18°C 59°F / 15°C 83% 29.98 in
(1015 mb)
Calm - 8SM
06:52
Overcast
64°F / 18°C 59°F / 15°C 83% 29.98 in
(1015 mb)
Calm - 8SM
06:23
Mostly Cloudy
63°F / 17°C 57°F / 14°C 83% 29.98 in
(1015 mb)
Calm - 10SM
05:52
Partly Cloudy
63°F / 17°C 57°F / 14°C 83% 29.98 in
(1015 mb)
NE 3.5 mph
(NE 6 kph)
- 10SM
05:43
Partly Cloudy
63°F / 17°C 57°F / 14°C 83% 29.98 in
(1015 mb)
NE 3.5 mph
(NE 6 kph)
- 10SM
04:52
Overcast
64°F / 18°C 59°F / 15°C 83% 29.95 in
(1014 mb)
NE 3.5 mph
(NE 6 kph)
- 10SM
03:52
Overcast
N/A N/A N/A 29.95 in
(1014 mb)
Calm - 10SM
02:52
Mostly Cloudy
N/A N/A N/A 29.95 in
(1014 mb)
Calm - 9SM
02:36
Mostly Cloudy
N/A N/A N/A 29.95 in
(1014 mb)
Calm - 8SM
02:28
Partly Cloudy
N/A N/A N/A 29.95 in
(1014 mb)
Calm - 9SM
01:52
Clear
N/A N/A N/A 29.95 in
(1014 mb)
Calm - 7SM
00:52
Clear
N/A N/A N/A 29.95 in
(1014 mb)
Calm - 8SM
Time Weather Temperature Dewpoint Humidity Pressure Winds Precip Visibility


Weather for websites

WeatherForYou.com, LLC is not responsible for any damages or problems caused by this service. Current weather conditions are obtained from the closest station including government and personal stations which may have varying degrees of accuracy. Weather forecasts are derived from the NOAA NDFD. Like all things, this site belongs to Jesus Christ... He just trusts me to maintain it. If you have any questions or comments email webmaster@weatherforyou.com

Copyright © 2014, WeatherForYou.com LLC. All rights reserved.